Time,TemperatureF,DewpointF,PressureIn,WindDirection,WindDirectionDegrees,WindSpeedMPH,WindSpeedGustMPH,Humidity,HourlyPrecipIn,Conditions,Clouds,dailyrainin,SoftwareType,DateUTC
2013-01-30 00:07:00,39.5,38.0,30.15,SW,229,4.0,4.0,93,0.01,,,0.00,weatherlink.com 1.10,2013-01-30 05:07:00,
2013-01-30 00:22:00,39.2,37.0,30.14,SSW,200,2.0,5.0,93,0.01,,,0.00,weatherlink.com 1.10,2013-01-30 05:22:00,
2013-01-30 00:37:00,39.1,37.0,30.15,SSE,160,1.0,6.0,93,0.02,,,0.01,weatherlink.com 1.10,2013-01-30 05:37:00,
2013-01-30 00:53:00,38.9,37.0,30.14,SE,125,3.0,6.0,94,0.04,,,0.04,weatherlink.com 1.10,2013-01-30 05:53:00,
2013-01-30 01:07:00,38.8,37.0,30.14,ESE,103,2.0,8.0,94,0.05,,,0.05,weatherlink.com 1.10,2013-01-30 06:07:00,
2013-01-30 01:23:00,38.7,37.0,30.14,SSE,153,3.0,5.0,95,0.05,,,0.05,weatherlink.com 1.10,2013-01-30 06:23:00,
2013-01-30 01:37:00,38.4,37.0,30.13,SSW,197,4.0,-999.0,95,-99.99,,,0.06,weatherlink.com 1.10,2013-01-30 06:37:00,
2013-01-30 01:52:00,38.3,37.0,30.14,South,177,2.0,7.0,95,0.02,,,0.06,weatherlink.com 1.10,2013-01-30 06:52:00,
2013-01-30 02:07:00,38.4,37.0,30.13,WSW,249,3.0,7.0,95,0.02,,,0.07,weatherlink.com 1.10,2013-01-30 07:07:00,
2013-01-30 02:22:00,38.5,37.0,30.13,SSE,148,3.0,8.0,95,0.03,,,0.08,weatherlink.com 1.10,2013-01-30 07:22:00,
2013-01-30 02:37:00,38.5,38.0,30.12,SW,215,2.0,6.0,96,0.02,,,0.08,weatherlink.com 1.10,2013-01-30 07:37:00,
2013-01-30 02:53:00,38.7,38.0,30.11,SSE,156,0.0,7.0,96,0.02,,,0.08,weatherlink.com 1.10,2013-01-30 07:53:00,
2013-01-30 03:08:00,38.9,38.0,30.10,ESE,108,3.0,7.0,96,0.02,,,0.09,weatherlink.com 1.10,2013-01-30 08:08:00,
2013-01-30 03:23:00,38.9,38.0,30.10,ESE,116,2.0,5.0,96,0.01,,,0.09,weatherlink.com 1.10,2013-01-30 08:23:00,
2013-01-30 03:38:00,39.1,38.0,30.08,South,181,4.0,6.0,96,0.01,,,0.09,weatherlink.com 1.10,2013-01-30 08:38:00,
2013-01-30 03:53:00,39.3,38.0,30.09,SE,125,2.0,5.0,96,0.01,,,0.09,weatherlink.com 1.10,2013-01-30 08:53:00,
2013-01-30 04:08:00,39.6,39.0,30.07,SE,131,4.0,7.0,96,0.00,,,0.09,weatherlink.com 1.10,2013-01-30 09:08:00,
2013-01-30 04:23:00,39.9,39.0,30.06,SSE,152,0.0,6.0,97,0.00,,,0.09,weatherlink.com 1.10,2013-01-30 09:23:00,
2013-01-30 04:38:00,40.3,40.0,30.06,SE,128,1.0,8.0,97,0.00,,,0.09,weatherlink.com 1.10,2013-01-30 09:38:00,
2013-01-30 04:53:00,40.2,39.0,30.05,South,190,4.0,6.0,96,0.00,,,0.09,weatherlink.com 1.10,2013-01-30 09:53:00,
2013-01-30 05:08:00,40.7,40.0,30.04,ESE,118,5.0,7.0,97,0.00,,,0.09,weatherlink.com 1.10,2013-01-30 10:08:00,
2013-01-30 05:23:00,41.3,41.0,30.04,SE,142,2.0,5.0,97,0.00,,,0.09,weatherlink.com 1.10,2013-01-30 10:23:00,
2013-01-30 05:38:00,41.7,41.0,30.02,SSE,155,3.0,8.0,97,0.00,,,0.09,weatherlink.com 1.10,2013-01-30 10:38:00,
2013-01-30 05:53:00,41.5,41.0,30.03,WSW,247,5.0,8.0,97,0.00,,,0.09,weatherlink.com 1.10,2013-01-30 10:53:00,
2013-01-30 06:08:00,41.8,41.0,30.03,SSW,198,2.0,6.0,97,0.00,,,0.09,weatherlink.com 1.10,2013-01-30 11:08:00,
2013-01-30 06:23:00,41.8,41.0,30.03,SSE,166,3.0,7.0,97,0.00,,,0.09,weatherlink.com 1.10,2013-01-30 11:23:00,
2013-01-30 06:38:00,42.0,41.0,30.03,SW,222,4.0,8.0,97,0.00,,,0.09,weatherlink.com 1.10,2013-01-30 11:38:00,
2013-01-30 06:53:00,42.0,41.0,30.02,SSW,201,5.0,8.0,97,0.00,,,0.09,weatherlink.com 1.10,2013-01-30 11:53:00,
2013-01-30 07:08:00,42.0,41.0,30.02,SW,225,5.0,9.0,97,0.00,,,0.09,weatherlink.com 1.10,2013-01-30 12:08:00,
2013-01-30 07:23:00,42.0,41.0,30.01,SSW,202,4.0,8.0,97,0.00,,,0.09,weatherlink.com 1.10,2013-01-30 12:23:00,
2013-01-30 07:39:00,42.8,42.0,30.00,SSW,207,7.0,11.0,97,0.00,,,0.09,weatherlink.com 1.10,2013-01-30 12:39:00,
2013-01-30 07:53:00,43.0,42.0,30.00,SSW,204,3.0,9.0,97,0.00,,,0.09,weatherlink.com 1.10,2013-01-30 12:53:00,
2013-01-30 08:09:00,43.3,42.0,29.98,West,273,3.0,9.0,96,0.00,,,0.09,weatherlink.com 1.10,2013-01-30 13:09:00,
2013-01-30 08:24:00,43.4,42.0,29.97,SSE,150,5.0,10.0,96,0.00,,,0.09,weatherlink.com 1.10,2013-01-30 13:24:00,
2013-01-30 08:39:00,43.5,42.0,29.96,South,184,9.0,13.0,95,0.00,,,0.09,weatherlink.com 1.10,2013-01-30 13:39:00,
2013-01-30 08:53:00,43.7,43.0,29.96,SSW,212,8.0,14.0,96,0.00,,,0.09,weatherlink.com 1.10,2013-01-30 13:53:00,
2013-01-30 09:08:00,44.8,44.0,29.95,SSW,210,15.0,15.0,95,0.00,,,0.09,weatherlink.com 1.10,2013-01-30 14:08:00,
2013-01-30 09:24:00,44.8,44.0,29.95,SW,216,12.0,16.0,95,0.00,,,0.09,weatherlink.com 1.10,2013-01-30 14:24:00,
2013-01-30 09:39:00,44.9,44.0,29.94,SW,217,8.0,14.0,95,0.00,,,0.09,weatherlink.com 1.10,2013-01-30 14:39:00,
2013-01-30 09:54:00,46.1,45.0,29.93,SW,215,11.0,19.0,96,0.00,,,0.09,weatherlink.com 1.10,2013-01-30 14:54:00,
2013-01-30 10:09:00,47.5,47.0,29.91,SSW,202,9.0,19.0,96,0.00,,,0.09,weatherlink.com 1.10,2013-01-30 15:09:00,
2013-01-30 10:24:00,48.1,47.0,29.91,SW,217,15.0,18.0,95,0.00,,,0.09,weatherlink.com 1.10,2013-01-30 15:24:00,
2013-01-30 10:39:00,48.5,47.0,29.91,SW,217,12.0,20.0,94,0.00,,,0.09,weatherlink.com 1.10,2013-01-30 15:39:00,
2013-01-30 10:54:00,48.1,47.0,29.90,SSW,204,10.0,19.0,94,0.00,,,0.09,weatherlink.com 1.10,2013-01-30 15:54:00,
2013-01-30 11:09:00,48.9,48.0,29.88,SW,224,11.0,16.0,96,0.00,,,0.09,weatherlink.com 1.10,2013-01-30 16:09:00,
2013-01-30 11:24:00,48.5,47.0,29.87,SW,229,15.0,18.0,95,0.00,,,0.09,weatherlink.com 1.10,2013-01-30 16:24:00,
2013-01-30 11:39:00,48.1,47.0,29.86,SW,235,13.0,20.0,96,0.00,,,0.09,weatherlink.com 1.10,2013-01-30 16:39:00,
2013-01-30 11:54:00,47.0,46.0,29.85,SW,217,13.0,20.0,96,0.00,,,0.09,weatherlink.com 1.10,2013-01-30 16:54:00,
2013-01-30 12:09:00,46.5,46.0,29.84,SSW,209,13.0,20.0,96,0.00,,,0.09,weatherlink.com 1.10,2013-01-30 17:09:00,
2013-01-30 12:24:00,47.1,47.0,29.82,SW,218,15.0,24.0,98,0.00,,,0.09,weatherlink.com 1.10,2013-01-30 17:24:00,
2013-01-30 12:39:00,47.9,47.0,29.81,SW,235,17.0,20.0,98,0.00,,,0.09,weatherlink.com 1.10,2013-01-30 17:39:00,
2013-01-30 12:55:00,48.3,48.0,29.79,SSW,197,11.0,20.0,98,0.00,,,0.09,weatherlink.com 1.10,2013-01-30 17:55:00,
2013-01-30 13:09:00,48.7,48.0,29.78,SSE,163,13.0,21.0,98,0.00,,,0.09,weatherlink.com 1.10,2013-01-30 18:09:00,
2013-01-30 13:24:00,48.5,48.0,29.77,South,184,14.0,21.0,97,0.00,,,0.09,weatherlink.com 1.10,2013-01-30 18:24:00,
2013-01-30 13:39:00,48.8,48.0,29.77,SW,222,20.0,28.0,98,0.00,,,0.09,weatherlink.com 1.10,2013-01-30 18:39:00,
2013-01-30 13:55:00,47.2,46.0,29.76,SSW,195,16.0,22.0,97,0.00,,,0.09,weatherlink.com 1.10,2013-01-30 18:55:00,
2013-01-30 14:10:00,46.5,46.0,29.76,SW,225,15.0,20.0,97,0.00,,,0.09,weatherlink.com 1.10,2013-01-30 19:10:00,
2013-01-30 14:24:00,46.6,46.0,29.75,SW,221,15.0,22.0,98,0.00,,,0.09,weatherlink.com 1.10,2013-01-30 19:24:00,
2013-01-30 14:39:00,47.5,47.0,29.75,SW,226,19.0,23.0,98,0.00,,,0.09,weatherlink.com 1.10,2013-01-30 19:39:00,
2013-01-30 14:54:00,48.0,48.0,29.75,SSW,209,13.0,23.0,98,0.00,,,0.09,weatherlink.com 1.10,2013-01-30 19:54:00,
2013-01-30 15:10:00,48.1,48.0,29.74,SW,231,16.0,24.0,98,0.00,,,0.09,weatherlink.com 1.10,2013-01-30 20:10:00,
2013-01-30 15:40:00,47.5,47.0,29.73,SW,230,17.0,26.0,98,0.00,,,0.09,weatherlink.com 1.10,2013-01-30 20:40:00,
2013-01-30 15:55:00,47.1,47.0,29.73,SSW,207,19.0,25.0,99,0.00,,,0.09,weatherlink.com 1.10,2013-01-30 20:55:00,
2013-01-30 16:10:00,47.3,47.0,29.72,SW,217,15.0,25.0,99,0.00,,,0.09,weatherlink.com 1.10,2013-01-30 21:10:00,
2013-01-30 16:25:00,47.8,48.0,29.72,SSW,207,21.0,25.0,99,0.00,,,0.09,weatherlink.com 1.10,2013-01-30 21:25:00,
2013-01-30 16:40:00,48.0,48.0,29.72,SSW,205,17.0,25.0,99,0.00,,,0.09,weatherlink.com 1.10,2013-01-30 21:40:00,
2013-01-30 16:55:00,47.6,47.0,29.72,SW,218,14.0,25.0,99,0.00,,,0.09,weatherlink.com 1.10,2013-01-30 21:55:00,
2013-01-30 17:10:00,46.8,47.0,29.72,SW,228,15.0,21.0,99,0.00,,,0.09,weatherlink.com 1.10,2013-01-30 22:10:00,
2013-01-30 17:25:00,46.8,47.0,29.73,SW,226,16.0,20.0,99,0.00,,,0.09,weatherlink.com 1.10,2013-01-30 22:25:00,
2013-01-30 17:40:00,47.5,47.0,29.73,SSW,211,13.0,20.0,99,0.00,,,0.09,weatherlink.com 1.10,2013-01-30 22:40:00,
2013-01-30 17:55:00,47.7,48.0,29.73,SSW,212,13.0,22.0,99,0.00,,,0.09,weatherlink.com 1.10,2013-01-30 22:55:00,
2013-01-30 18:10:00,48.3,48.0,29.73,SW,222,16.0,19.0,99,0.00,,,0.09,weatherlink.com 1.10,2013-01-30 23:10:00,
2013-01-30 18:25:00,48.2,48.0,29.72,SW,225,17.0,22.0,99,0.00,,,0.09,weatherlink.com 1.10,2013-01-30 23:25:00,
2013-01-30 18:40:00,48.0,48.0,29.71,SW,229,16.0,20.0,99,0.00,,,0.09,weatherlink.com 1.10,2013-01-30 23:40:00,
2013-01-30 18:55:00,48.3,48.0,29.71,SSW,204,17.0,24.0,99,0.00,,,0.09,weatherlink.com 1.10,2013-01-30 23:55:00,
2013-01-30 19:10:00,48.0,48.0,29.71,SSW,204,15.0,20.0,99,0.00,,,0.09,weatherlink.com 1.10,2013-01-31 00:10:00,
2013-01-30 19:25:00,48.4,48.0,29.70,SW,224,11.0,19.0,99,0.00,,,0.09,weatherlink.com 1.10,2013-01-31 00:25:00,
2013-01-30 19:40:00,48.7,49.0,29.70,SW,219,14.0,19.0,99,0.00,,,0.09,weatherlink.com 1.10,2013-01-31 00:40:00,
2013-01-30 19:55:00,48.6,48.0,29.70,SW,235,15.0,20.0,99,0.00,,,0.09,weatherlink.com 1.10,2013-01-31 00:55:00,
2013-01-30 20:10:00,48.1,48.0,29.69,SSW,210,11.0,17.0,99,0.00,,,0.09,weatherlink.com 1.10,2013-01-31 01:10:00,
2013-01-30 20:25:00,48.1,48.0,29.68,SW,223,12.0,19.0,99,0.00,,,0.09,weatherlink.com 1.10,2013-01-31 01:25:00,
2013-01-30 20:40:00,48.8,49.0,29.68,SW,217,15.0,20.0,99,0.00,,,0.09,weatherlink.com 1.10,2013-01-31 01:40:00,
2013-01-30 20:55:00,50.2,50.0,29.67,SSW,195,14.0,22.0,100,0.00,,,0.09,weatherlink.com 1.10,2013-01-31 01:55:00,
2013-01-30 21:10:00,50.7,51.0,29.65,SW,228,22.0,25.0,100,0.00,,,0.09,weatherlink.com 1.10,2013-01-31 02:10:00,
2013-01-30 21:25:00,50.6,51.0,29.64,SSW,202,16.0,29.0,100,0.00,,,0.09,weatherlink.com 1.10,2013-01-31 02:25:00,
2013-01-30 21:40:00,50.8,51.0,29.63,SSW,212,22.0,28.0,100,0.00,,,0.09,weatherlink.com 1.10,2013-01-31 02:40:00,
2013-01-30 21:56:00,50.6,51.0,29.63,SW,225,17.0,27.0,100,0.00,,,0.09,weatherlink.com 1.10,2013-01-31 02:56:00,
2013-01-30 22:10:00,50.0,50.0,29.62,SW,217,18.0,24.0,100,0.00,,,0.09,weatherlink.com 1.10,2013-01-31 03:10:00,
2013-01-30 22:26:00,50.1,50.0,29.62,SW,235,24.0,26.0,100,0.00,,,0.09,weatherlink.com 1.10,2013-01-31 03:26:00,
2013-01-30 22:41:00,50.2,50.0,29.61,SSW,204,11.0,26.0,100,0.00,,,0.09,weatherlink.com 1.10,2013-01-31 03:41:00,
2013-01-30 22:55:00,50.4,50.0,29.60,SW,217,15.0,25.0,100,0.00,,,0.09,weatherlink.com 1.10,2013-01-31 03:55:00,
2013-01-30 23:14:00,50.6,51.0,29.60,SW,231,19.0,27.0,100,0.00,,,0.09,weatherlink.com 1.10,2013-01-31 04:14:00,
2013-01-30 23:25:00,50.6,51.0,29.60,SSW,198,12.0,23.0,100,0.00,,,0.09,weatherlink.com 1.10,2013-01-31 04:25:00,
2013-01-30 23:40:00,50.3,50.0,29.61,SW,229,15.0,22.0,100,0.00,,,0.09,weatherlink.com 1.10,2013-01-31 04:40:00,
2013-01-30 23:55:00,49.8,50.0,29.59,SW,215,13.0,21.0,100,0.00,,,0.09,weatherlink.com 1.10,2013-01-31 04:55:00,